Main page
METAR-TAF:

METAR-TAF

Airports :

Sarh Airport

Sarh, Chad

latitude: 09-09N, longitude: 018-23E, elevation: 365 m

Current weather observation

The report was made 34 minutes ago, at 14:00 UTC
Wind 4 kt from the North/Northwest
Temperature 33°C
Humidity 59%
Pressure 1009 hPa
Visibility 10 km or more
Few clouds at a height of 4000 ft
Few clouds at a height of 5000 ft, Cumulonimbus.

METAR: FTTA 011400Z 34004KT 9999 FEW040 FEW050CB 33/24 Q1009

Time: 15:34 (14:34 UTC)


TAF: missing

Weather observations and forecasts of more than 4000 airports (METAR and TAF reports).

The available stations are represented by yellow and red dots on the map.

Hover mouse over dot to see the name of the station.

Then click to see weather observations and forecasts.

To change the map : click on the green buttons with a black cross to zoom in, on the green button with a dash to zoom out, or on the green arrows for adjacent maps.


METAR-TAF: